Cloud_Cover
0 0 0 0 0 0 0 2 5 10 5 20 27 51 5 5 5 5 5 4 0 0 0 0 0 0 0 0 0 0 0 0 0 0 0 0 0 0 0 0 0 5 2 5
0 0 0 0 0 0 2 5 20 3 0 0 0 0 0 0 0 0 0 0 0 0 0 0 0 0 0 0 0 0 0 0 0 0 0 0 0 0 0 0 0 1 2 3
0 0 0 0 0 0 0 0 0 0 1 4 0 3 0 0 0 0 0 0 0 0 0 0 0 0 0 0 0 0 0 0 0 0 0 0 0 0 0 0 0 0 0 0
0 0 0 0 0 0 0 0 0 0 0 0 0 0 0 0 0 0 2 1 4 3 2 0 0 0 0 4 5 1 0 0 0 0 0 0 1 0 0 0 0 0 0 0
2 4 0 0 0 0 0 4 5 5 3 0 0 0 4 0 0 92 50 5 0 0 0 0 0 0 0 5 6 5 5 5 3 0 2 0 5 5 0 0 0 0 0 0
0 0 0 2 4 12 5 66 31 11 5 2 0 0 5 3 0 0 3 0 0 0 0 0 0 0 0 5 5 5 5 5 5 3 3 3 3 3 5 0 0 0 0 0
3 5 5 5 5 5 12 78 18 2 0 0 0 12 98 21 5 0 0 0 0 0 0 0 0 0 0 5 5 21 37 33 33 68 14 2 0 0 5 4 0 0 3 0
4 5 74 77 74 82 13 5 0 4 2 0 0 33 100 4 0 0 5 5 1 4 5 0 0 0 5 5 5 47 82 66 79 58 13 5 1 3 2 5 5 0 5 4
5 5 7 5 0 1 0 5 4 4 0 0 90 12 0 1 33 99 44 0 6 5 1 0 2 0 5 5 5 5 53 98 88 93 99 5 5 11 7 90 39 10 93 5
0 0 1 0 0 0 0 0 0 0 0 0 0 0 4 89 4 2 3 62 85 5 1 0 1 5 5 5 5 5 5 5 5 5 6 5 5 5 4 56 23 100 94 42
0 0 0 0 0 0 0 0 1 0 5 2 5 0 0 9 100 98 100 85 86 13 57 43 8 5 5 10 70 12 5 60 5 5 5 5 5 5 20 87 94 0 42 30
0 0 0 0 0 0 0 0 31 37 83 98 6 18 5 96 62 97 100 100 100 79 100 100 87 6 5 8 40 35 5 88 5 5 5 5 5 5 8 74 5 98 100 74
0 0 0 0 0 0 17 98 92 100 99 55 96 18 17 100 100 100 100 100 100 84 60 94 48 5 5 6 42 6 80 13 5 5 5 5 5 5 11 98 100 100 100 100
3 3 0 2 13 52 99 97 98 10 65 66 39 100 100 88 100 62 100 100 98 97 82 48 7 5 5 5 6 5 6 4 5 3 4 5 2 43 100 100 100 100 100 100
0 0 5 96 100 100 100 100 52 92 24 100 100 100 100 60 100 76 100 100 100 99 54 5 5 5 3 4 5 1 0 0 5 0 1 5 94 100 100 100 100 100 100 100
1 47 96 100 100 100 100 99 45 100 5 100 100 91 100 92 97 99 100 100 59 82 67 5 4 0 10 81 32 2 0 0 2 0 2 86 100 100 100 100 100 100 100 100
47 99 100 100 100 25 3 8 2 0 4 23 100 100 98 98 98 100 50 100 100 49 10 2 0 52 100 100 100 100 51 5 0 5 20 92 100 100 100 100 100 100 100 100
36 100 100 100 100 4 0 86 1 4 23 100 98 100 100 100 72 85 100 100 36 5 5 2 90 100 100 100 100 100 100 84 6 5 53 69 100 100 100 100 100 100 100 100
100 100 100 100 100 100 10 35 18 81 3 62 100 86 100 97 68 100 100 92 40 5 1 97 100 100 100 100 100 100 100 100 99 94 49 100 100 100 100 100 100 100 100 100
94 96 100 76 100 28 5 17 47 98 63 99 91 83 46 23 58 99 100 96 43 5 96 66 98 100 100 99 100 100 100 100 98 64 100 100 100 100 100 100 100 100 100 100
100 100 67 71 94 55 87 92 6 100 83 14 100 100 65 45 97 35 5 5 4 30 53 100 100 100 96 100 99 100 100 100 93 100 100 100 100 100 100 100 100 100 100 100
100 96 6 25 53 66 95 11 96 100 80 100 98 100 86 60 45 11 5 3 42 52 100 100 96 100 99 98 100 100 100 100 100 100 100 100 100 100 100 100 100 100 100 100
100 100 94 84 5 3 70 100 100 100 100 100 96 100 72 25 10 5 10 85 100 100 100 100 100 100 100 100 100 100 100 100 100 100 100 100 100 100 100 100 100 100 100 100
100 100 100 98 18 100 98 99 100 100 85 90 100 98 13 5 5 9 95 100 100 100 100 100 100 100 84 100 100 100 100 100 100 100 100 100 100 100 100 100 100 100 100 100
100 100 100 100 96 5 22 36 93 90 72 91 15 5 5 5 25 100 100 100 100 100 100 100 100 100 100 100 100 100 100 100 100 100 100 100 100 100 100 100 100 100 100 100
100 100 100 100 100 100 42 36 17 100 28 80 5 42 12 90 94 99 100 100 100 88 100 100 100 100 100 100 100 100 100 100 100 100 100 100 100 100 100 100 100 100 100 100